Location: Madrid
(40.4000°N, 3.6830°W)
Time: 07:06:41
(UTC+01:00)

ISS - Pass Details

Date: 23 November 2020
Orbit: 418 x 420 km, 51.6° (Epoch: 04 December)

Event Time Altitude Azimuth Distance (km) Brightness Sun altitude
Rises 18:51:15 0° 246° (WSW) 2,352 2.1 -11.3°
Reaches altitude 10° 18:53:23 10° 252° (WSW) 1,491 0.6 -11.7°
Maximum altitude 18:56:38 48° 328° (NNW) 558 -3.1 -12.3°
Enters shadow 18:58:56 17° 38° (NE) 1,132 -2.1 -12.7°
